Amarillo, TX

5:44 PM CDT on October 13, 2019 (GMT -0500)
Amarillo International

Weather History for KAMA - September, 2019

Change the Weather History Date:

Friday, September 20, 2019

  Actual Average Record
Temperature  
Mean Temperature 69 °F 68 °F  
Max Temperature 77 °F 81 °F 97 °F (1977)
Min Temperature 60 °F 55 °F 37 °F (1983)
Degree Days  
Heating Degree Days 0 2  
Month to date heating degree days 0 14  
Since 1 July heating degree days 0 15  
Cooling Degree Days 4 5  
Month to date cooling degree days 250 144  
Year to date cooling degree days 1571 1336  
Growing Degree Days 18 (Base 50)    
Moisture  
Dew Point 62 °F    
Average Humidity 81    
Maximum Humidity 93    
Minimum Humidity 68    
Precipitation  
Precipitation 0.30 in 0.06 in 1.16 in (1955)
Month to date precipitation 0.92 1.31  
Year to date precipitation 17.91 16.58  
Snow  
Snow 0.00 in 0.00 in T in (1955)
Month to date snowfall 0.0 0.0  
Since 1 July snowfall 0.0 0.0  
Since 1 September snowfall 0.0 0.0  
Snow Depth 0.00 in    
Sea Level Pressure  
Sea Level Pressure 29.91 in    
Wind  
Wind Speed 12 mph (SE)    
Max Wind Speed 36 mph    
Max Gust Speed 42 mph    
Visibility 9 miles    
Events Rain , Thunderstorm    
T = Trace of Precipitation, MM = Missing Value Source: NWS Daily Summary

Daily Weather History Graph

Daily Weather History Graph

Search for Another Location

Airport or City:

Astronomy

Sep. 20, 2019 Rise Set
Actual Time 7:33 AM CDT 7:46 PM CDT
Civil Twilight 7:07 AM CDT 8:12 PM CDT
Nautical Twilight 6:38 AM CDT 8:41 PM CDT
Astronomical Twilight 6:08 AM CDT 9:11 PM CDT
Moon 11:51 PM CDT (9/20) 1:27 PM CDT (9/20)
Length of Visible Light 13h 04m
Length of Day
12h 13m
Waning Gibbous, 65% of the Moon is Illuminated
Sep 20
Waning Gibbous
Sep 21
Last Quarter
Sep 28
New
Oct 5
First Quarter
Oct 13
Full

Hourly Weather History & Observations

Time (CDT) Temp. Dew Point Humidity Pressure Visibility Wind Dir Wind Speed Gust Speed Precip Events Conditions
12:53 AM 62.1 °F 57.9 °F 86% 29.82 in 10.0 mi SE 15.0 mph - N/A   Clear
1:53 AM 61.0 °F 57.0 °F 87% 29.80 in 10.0 mi SE 10.4 mph - N/A   Clear
2:53 AM 61.0 °F 57.0 °F 87% 29.80 in 10.0 mi SSE 11.5 mph - N/A   Clear
3:53 AM 62.1 °F 60.1 °F 93% 29.80 in 10.0 mi SSE 10.4 mph - N/A   Clear
4:02 AM 62.1 °F 61.0 °F 96% 29.96 in 10.0 mi SSE 10.4 mph - N/A   Scattered Clouds
4:10 AM 63.0 °F 61.0 °F 93% 29.97 in 10.0 mi SSE 11.5 mph - N/A   Mostly Cloudy
4:53 AM 64.0 °F 60.1 °F 87% 29.87 in 10.0 mi NNW 13.8 mph 19.6 mph N/A   Overcast
5:12 AM 64.0 °F 60.1 °F 87% 30.03 in 10.0 mi NW 5.8 mph - N/A   Overcast
5:19 AM 64.9 °F 60.1 °F 84% 30.02 in 10.0 mi NW 9.2 mph - N/A   Overcast
5:39 AM 64.9 °F 57.9 °F 78% 30.02 in 10.0 mi NW 8.1 mph - N/A   Overcast
5:53 AM 64.0 °F 57.9 °F 80% 29.89 in 10.0 mi NNW 4.6 mph - N/A   Mostly Cloudy
6:53 AM 62.1 °F 57.9 °F 86% 29.91 in 10.0 mi NE 4.6 mph - N/A   Mostly Cloudy
7:53 AM 64.0 °F 57.9 °F 80% 29.94 in 10.0 mi NNW 8.1 mph - N/A   Overcast
8:06 AM 64.0 °F 59.0 °F 84% 30.05 in 10.0 mi NNW 6.9 mph - 0.00 in Rain , Thunderstorm Light Rain
8:22 AM 62.1 °F 59.0 °F 90% 30.06 in 2.0 mi NW 10.4 mph - 0.05 in Rain , Thunderstorm Thunderstorms and Rain
8:32 AM 62.1 °F 60.1 °F 93% 30.06 in 2.0 mi NNW 6.9 mph - 0.16 in Rain , Thunderstorm Light Rain
8:46 AM 62.1 °F 60.1 °F 93% 30.05 in 3.0 mi North 8.1 mph - 0.19 in Rain , Thunderstorm Heavy Thunderstorms and Rain
8:53 AM 62.1 °F 60.1 °F 93% 29.94 in 4.0 mi North 5.8 mph - 0.23 in Rain , Thunderstorm Light Thunderstorms and Rain
9:01 AM 62.1 °F 60.1 °F 93% 30.04 in 8.0 mi ENE 4.6 mph - 0.00 in Rain Light Rain
9:53 AM 64.0 °F 62.1 °F 93% 29.92 in 10.0 mi East 8.1 mph - 0.01 in   Mostly Cloudy
10:01 AM 66.0 °F 64.0 °F 93% 30.02 in 10.0 mi East 9.2 mph - 0.01 in   Scattered Clouds
10:53 AM 68.0 °F 62.1 °F 81% 29.90 in 10.0 mi ESE 11.5 mph - 0.01 in   Mostly Cloudy
11:53 AM 73.0 °F 62.1 °F 68% 29.88 in 10.0 mi SSE 12.7 mph - N/A   Scattered Clouds
12:53 PM 71.1 °F 64.9 °F 81% 29.89 in 10.0 mi SSE 11.5 mph - 0.00 in Rain Light Rain
1:53 PM 71.1 °F 66.0 °F 84% 29.88 in 10.0 mi SSE 13.8 mph - 0.01 in   Clear
2:53 PM 72.0 °F 64.9 °F 78% 29.84 in 10.0 mi SSE 12.7 mph - N/A   Scattered Clouds
3:53 PM 73.0 °F 64.9 °F 76% 29.82 in 10.0 mi SSE 12.7 mph - N/A   Scattered Clouds
4:53 PM 73.9 °F 66.0 °F 76% 29.82 in 10.0 mi South 17.3 mph - N/A   Partly Cloudy
5:53 PM 77.0 °F 66.0 °F 69% 29.79 in 10.0 mi SSE 13.8 mph - N/A   Partly Cloudy
6:53 PM 75.0 °F 66.0 °F 73% 29.80 in 10.0 mi South 16.1 mph - N/A   Partly Cloudy
7:53 PM 71.1 °F 64.0 °F 78% 29.81 in 10.0 mi SSE 8.1 mph - N/A   Clear
8:53 PM 69.1 °F 66.9 °F 93% 29.83 in 8.0 mi SE 11.5 mph - N/A   Scattered Clouds
9:03 PM 70.0 °F 66.9 °F 90% 29.96 in 7.0 mi SSE 15.0 mph - N/A   Mostly Cloudy
9:44 PM 69.1 °F 66.9 °F 93% 29.99 in 7.0 mi SSE 12.7 mph - N/A   Mostly Cloudy
9:53 PM 69.1 °F 66.9 °F 93% 29.87 in 7.0 mi SSE 12.7 mph - N/A   Mostly Cloudy
10:07 PM 69.1 °F 66.0 °F 90% 30.00 in 6.0 mi SSE 8.1 mph - N/A   Mostly Cloudy
10:53 PM 68.0 °F 64.0 °F 87% 29.87 in 10.0 mi SSE 15.0 mph - N/A   Clear
11:41 PM 68.0 °F 64.0 °F 87% 29.99 in 10.0 mi South 28.8 mph 38.0 mph 0.00 in Rain , Thunderstorm Light Rain
11:51 PM 68.0 °F 62.6 °F 83% 29.96 in 8.0 mi South 32.2 mph 41.4 mph 0.00 in Rain , Thunderstorm Light Thunderstorms and Rain
11:53 PM 68.0 °F 63.0 °F 84% 29.82 in 8.0 mi South 33.4 mph 41.4 mph 0.00 in Rain , Thunderstorm Light Thunderstorms and Rain